Theta_e
322 322 322 320 320 321 320 319 319 318 321 318 320 333 343 339 338 350 359 361 362 359 361 368 367 364 368 374 374 372 372 371 367 368 369 370 367 363 365 367 359 354 355 351 348 350 348 347 347 347 348 348 349 349 349 350 351 351 351 350 350 350 349 350 350 350 350 350 351 351 351 350 349 349 348 347 346 345 345 345 345 343 343 346 347 349
323 320 321 322 321 322 320 320 321 318 319 319 316 322 329 331 339 353 359 363 363 353 350 360 363 362 368 371 369 369 369 369 370 371 372 372 369 362 362 365 361 357 357 353 349 349 348 347 347 348 348 348 349 349 350 350 350 351 351 350 350 350 349 350 349 349 350 350 351 350 350 349 348 348 347 347 346 344 345 344 345 346 348 349 348 348
322 320 322 322 321 321 321 321 320 320 320 319 318 317 318 327 341 351 360 364 360 348 348 358 363 363 365 366 364 368 371 371 370 371 371 368 367 363 360 361 361 358 358 355 350 349 349 348 347 348 348 348 349 350 350 350 350 350 351 350 350 350 350 349 349 349 349 350 350 350 349 348 348 348 348 346 344 344 344 343 343 348 350 349 349 348
316 320 322 322 322 321 321 321 321 323 321 320 319 314 315 326 333 334 348 363 359 350 354 362 363 363 364 365 365 366 370 371 367 368 369 365 365 364 360 360 362 360 359 357 352 349 349 349 348 348 348 349 349 351 351 351 351 350 350 350 351 351 350 350 350 349 350 350 350 350 349 348 347 347 347 346 344 343 344 341 343 348 349 348 348 347
318 321 322 322 322 321 321 323 323 321 319 321 320 314 316 324 329 336 349 359 354 347 360 367 356 357 366 366 365 364 365 367 365 365 366 364 363 361 361 360 359 357 357 358 355 351 351 350 348 347 348 349 349 350 351 350 350 351 351 350 351 351 350 350 350 349 349 350 350 349 349 348 347 347 348 347 346 345 344 343 344 348 348 347 348 346
320 320 322 323 322 322 322 323 325 321 317 316 319 320 320 317 327 345 355 353 343 337 352 361 344 346 361 366 365 363 363 362 359 362 363 362 361 360 360 356 353 352 352 355 354 352 352 350 348 349 349 349 349 349 350 350 350 350 350 350 349 349 350 350 349 349 349 349 349 348 348 348 347 348 349 348 348 346 345 345 346 347 347 347 350 347
322 322 322 323 323 323 323 322 323 322 315 312 319 325 323 324 338 350 350 348 341 337 350 360 348 343 348 355 362 362 364 362 358 362 362 359 359 358 357 353 349 349 349 351 352 352 351 350 350 350 349 350 350 350 349 349 349 349 348 348 348 348 348 349 349 349 349 348 348 348 347 347 347 348 348 348 347 346 344 345 346 347 345 346 349 349
324 324 323 324 325 323 322 321 324 324 315 314 325 329 327 333 346 351 345 345 349 345 346 358 359 348 344 355 364 362 362 362 360 363 360 356 356 355 355 353 347 347 348 349 351 352 352 351 351 350 350 350 349 350 350 349 349 348 348 348 347 347 348 347 348 348 348 348 347 347 347 346 347 347 348 347 346 345 344 345 346 346 344 344 345 348
325 324 323 326 324 321 322 323 325 324 319 322 329 330 328 328 338 344 338 341 349 339 332 345 353 343 343 360 370 363 361 362 363 365 361 357 355 353 352 351 348 347 348 349 351 353 352 352 351 350 349 349 348 349 350 350 349 348 348 348 349 349 347 347 348 348 348 348 347 348 347 346 347 347 348 347 346 346 344 344 345 344 343 343 345 348
324 324 326 325 323 323 325 325 325 324 324 328 327 326 331 330 332 340 341 339 337 330 328 335 344 343 342 353 360 357 358 365 366 362 361 359 355 352 351 350 349 348 348 349 352 353 351 350 350 350 349 348 348 348 349 350 350 349 349 349 350 350 348 348 348 348 348 348 348 348 347 346 347 347 347 348 348 346 344 343 344 343 343 345 348 350
323 326 328 326 326 326 324 324 323 324 325 326 325 330 338 343 347 356 364 350 327 328 337 333 337 346 343 348 359 357 359 368 368 361 359 360 356 352 351 351 349 348 350 350 351 353 352 349 350 351 349 347 347 347 348 348 349 350 350 350 351 351 349 348 348 348 348 348 349 348 347 346 346 346 347 350 349 346 344 344 345 344 343 346 348 350
324 324 326 328 330 326 323 325 324 324 325 324 330 335 333 337 345 349 354 344 324 329 342 337 339 344 338 348 367 368 361 362 368 367 362 360 358 354 353 352 350 352 355 354 354 356 354 351 351 352 350 348 347 346 346 347 347 348 349 350 352 351 350 349 348 349 349 349 349 348 347 346 346 346 347 349 349 347 346 345 346 345 344 346 347 347
325 326 324 325 329 326 323 325 324 327 330 327 329 327 322 323 327 329 332 331 327 331 336 341 349 346 342 354 369 369 361 359 365 367 362 359 357 357 356 355 355 357 358 356 356 357 355 353 353 352 350 348 347 347 346 346 346 347 348 350 351 350 350 348 347 349 349 349 348 347 347 346 345 346 346 348 348 348 347 345 346 347 346 346 346 345
322 328 326 322 324 325 324 322 319 322 328 327 322 318 318 321 321 323 329 330 330 330 330 343 351 342 345 357 360 363 362 364 364 357 355 357 354 356 357 356 358 360 359 357 356 356 355 354 353 351 350 348 347 347 347 346 346 347 348 350 351 350 349 348 347 348 348 348 347 346 346 345 345 347 348 346 346 347 347 346 346 347 346 346 345 345
315 320 325 322 320 323 325 325 322 323 325 324 327 326 320 322 321 321 328 328 327 330 334 343 347 339 343 352 352 359 361 362 362 353 353 356 353 353 354 355 358 359 359 358 356 356 354 353 353 351 349 348 348 348 348 347 347 348 349 351 351 350 349 348 347 347 348 347 346 345 346 345 345 348 349 345 343 345 346 346 345 345 346 346 345 346
313 315 325 325 323 325 325 326 326 326 324 324 329 327 317 321 325 322 326 326 326 336 341 343 345 344 349 355 354 357 357 356 360 356 354 354 354 353 353 355 358 357 357 358 357 358 354 351 353 352 349 349 348 348 348 347 347 348 350 351 352 351 350 349 348 348 348 347 346 345 346 347 347 348 349 346 343 344 344 344 344 344 345 345 345 346
315 317 328 327 325 329 326 326 326 323 325 328 323 320 320 324 326 320 320 325 331 341 342 339 344 347 350 358 358 355 353 354 361 362 358 355 355 354 353 355 356 356 356 356 358 359 355 351 351 351 350 349 349 348 347 347 347 348 350 352 352 351 351 349 349 348 348 348 346 346 349 349 347 347 348 347 345 344 343 343 345 346 347 347 346 347
322 319 329 330 324 328 328 327 332 328 327 325 317 321 328 328 330 328 322 325 337 344 341 339 343 343 343 351 357 356 356 355 360 366 365 362 357 354 355 355 357 357 356 356 357 358 355 352 351 351 351 350 349 348 347 347 347 349 351 352 352 352 351 350 350 349 348 348 348 348 351 350 346 345 346 347 346 345 345 345 346 347 348 349 348 348
327 318 325 333 324 327 332 329 329 330 327 325 322 328 329 319 322 328 322 323 333 340 342 343 344 342 343 350 354 357 362 361 363 368 369 366 362 359 358 358 358 357 356 358 359 358 356 353 353 353 353 352 350 349 348 346 346 348 352 352 352 352 352 351 351 350 349 349 348 348 350 349 345 344 345 347 347 347 347 347 348 348 348 350 350 349
333 322 320 331 329 326 333 330 322 322 328 329 328 331 331 323 322 323 322 323 329 334 340 343 343 344 351 360 360 359 364 365 365 368 369 368 368 368 364 361 359 358 358 359 358 358 357 355 356 357 354 354 352 350 349 347 346 349 352 353 352 352 352 352 351 351 350 350 349 348 348 347 345 344 346 348 348 347 347 347 348 348 349 350 350 350
334 325 317 329 336 326 327 329 323 324 328 326 325 324 324 325 325 326 326 323 325 332 337 343 345 348 360 369 364 359 361 363 366 370 371 370 370 371 368 365 361 358 358 357 356 358 357 354 356 357 356 354 352 351 350 347 347 350 353 353 353 352 352 352 352 351 351 351 351 349 348 346 344 344 347 348 348 347 347 347 348 348 348 349 350 351
330 327 321 324 326 320 325 333 329 329 330 327 325 322 321 323 323 325 327 324 325 328 332 341 345 349 365 371 364 361 361 363 367 370 371 369 369 370 370 368 364 360 359 357 355 356 355 354 353 356 357 354 352 351 349 348 348 351 353 353 353 353 352 352 353 352 351 351 352 351 350 348 346 346 349 349 347 346 346 348 348 348 349 349 349 349
340 341 328 321 325 326 326 330 332 331 331 331 330 326 325 326 326 326 325 325 327 327 332 342 343 349 369 372 365 365 363 362 365 369 371 367 366 369 369 368 366 364 365 363 361 359 354 352 352 354 356 355 352 351 350 349 349 350 352 353 353 354 353 353 353 353 352 352 352 352 351 351 349 349 350 350 348 347 347 348 349 348 348 348 348 348
342 341 327 326 343 349 338 337 341 338 334 331 330 331 329 322 327 333 330 331 333 327 330 342 340 345 364 372 370 369 364 363 364 367 371 367 364 367 369 369 367 366 368 367 368 366 356 350 352 355 357 356 353 352 350 350 349 349 350 351 353 354 353 353 353 353 353 352 352 353 352 352 351 350 351 349 349 349 348 347 348 347 346 346 346 347
329 335 333 331 337 341 340 341 336 334 336 334 331 333 331 328 333 334 331 337 335 325 331 342 338 342 358 366 367 367 364 362 362 363 367 367 365 366 368 370 367 368 370 368 368 368 361 355 354 353 355 357 355 352 352 351 349 349 349 349 351 352 353 353 353 353 353 352 353 353 353 352 351 351 351 349 349 349 348 348 346 345 345 345 345 345
336 349 352 339 328 326 331 332 330 332 335 333 334 333 329 332 335 333 332 333 329 328 339 343 337 343 359 362 364 366 364 362 364 362 361 363 365 366 367 368 367 369 370 369 368 368 365 362 357 351 352 356 356 354 353 352 351 350 348 348 348 349 352 352 352 352 352 353 353 352 352 353 351 351 351 350 350 349 348 348 346 345 344 344 344 344
344 351 363 355 333 329 340 346 348 343 330 324 330 332 328 330 336 338 332 328 330 334 338 341 342 346 354 361 363 364 363 363 365 363 360 362 365 365 367 367 367 370 370 369 369 368 366 366 362 355 352 355 357 356 355 353 352 351 350 349 347 347 349 350 350 351 351 352 352 352 352 352 352 351 350 350 350 349 349 348 346 345 344 344 344 344
343 329 345 353 333 333 352 358 351 338 326 323 325 327 331 336 338 333 325 328 338 335 331 344 354 346 348 359 362 360 362 362 364 365 362 362 363 363 366 367 368 369 368 368 370 369 367 367 367 360 353 354 357 356 357 356 354 353 352 350 349 348 348 348 349 349 350 351 351 351 350 350 351 351 350 349 349 349 349 347 345 344 343 343 343 343
347 327 332 335 326 333 342 341 340 334 329 331 328 327 333 338 336 330 326 335 345 335 334 349 353 344 348 358 357 357 360 360 362 363 359 359 360 361 363 367 368 367 366 367 370 371 369 369 370 364 356 355 357 357 357 356 355 355 353 352 352 350 348 348 349 349 350 351 350 350 350 349 349 350 350 349 348 347 347 346 344 343 342 343 343 343
339 333 336 328 324 331 334 333 338 335 329 330 331 330 329 333 340 337 331 337 343 339 344 355 352 347 351 353 353 354 355 357 359 359 359 360 361 362 364 366 366 366 367 367 368 369 369 370 368 360 354 355 357 357 353 349 350 353 354 354 354 352 351 350 351 352 352 351 351 350 350 349 349 349 348 348 348 347 346 344 344 344 343 343 343 343
328 330 344 347 330 325 335 339 338 336 330 328 334 339 334 332 340 340 335 337 339 335 340 349 348 343 343 347 352 351 352 356 358 359 362 362 362 364 365 363 363 364 366 366 366 366 366 367 366 358 354 354 355 355 350 347 348 351 353 355 354 353 353 352 353 353 352 352 352 350 349 349 349 348 348 348 348 347 346 345 344 344 344 344 344 344
333 331 345 356 330 320 332 335 329 335 333 327 333 339 335 332 333 334 337 341 340 337 338 341 341 340 341 347 351 352 353 356 358 361 362 360 361 364 363 363 364 363 364 365 366 368 367 367 367 361 355 353 353 354 353 351 351 351 352 354 355 353 354 353 353 352 352 351 351 350 350 348 348 348 348 348 348 348 347 346 345 345 346 345 346 346
341 335 336 342 329 324 335 332 329 336 328 326 337 338 332 337 338 335 338 342 346 349 345 340 340 343 347 350 353 355 355 356 359 361 360 358 360 362 364 368 366 364 367 367 366 369 368 363 359 355 352 353 353 353 354 354 353 352 353 355 356 356 355 353 352 351 351 350 349 349 349 348 348 348 347 348 348 348 350 349 347 346 347 346 346 347
340 338 337 342 332 327 335 335 332 330 324 331 351 345 332 336 338 335 335 337 345 353 350 343 342 347 350 351 355 356 354 356 359 359 358 358 361 364 367 369 367 366 369 368 366 369 365 355 351 350 351 352 353 352 353 354 354 354 354 354 355 356 356 355 354 353 351 350 349 349 349 348 349 348 348 348 346 348 353 355 352 348 347 347 346 346
338 339 339 343 336 330 336 335 325 324 333 349 359 346 335 337 341 341 338 338 343 347 346 342 342 347 350 349 351 353 355 357 358 357 358 359 361 367 368 367 366 366 367 367 368 367 359 350 348 350 350 350 351 351 352 352 353 354 354 353 353 353 355 355 354 353 353 353 352 351 350 349 350 349 350 351 351 352 356 358 356 352 349 347 347 346
340 342 337 337 335 330 330 328 325 333 349 354 346 338 338 339 340 337 333 337 344 343 342 344 346 348 350 350 350 353 356 358 358 357 358 361 364 366 366 366 367 367 368 366 363 358 352 348 348 349 349 349 350 350 350 351 352 353 353 354 354 353 353 352 351 351 351 352 353 353 352 351 351 351 351 352 354 355 356 357 357 356 353 350 348 347
338 343 336 327 327 331 328 325 329 333 335 339 340 337 339 340 339 339 333 333 344 346 342 344 347 347 349 351 351 353 354 357 358 354 354 360 363 362 364 365 362 362 362 356 352 350 348 347 349 349 349 350 349 350 351 351 352 352 353 353 353 352 351 349 350 350 350 349 351 352 352 353 353 353 353 353 354 355 355 356 357 357 356 353 351 349
332 338 336 324 326 339 335 327 326 324 325 339 350 345 342 338 340 352 346 336 344 350 343 342 347 348 350 350 349 350 353 358 362 359 356 357 355 353 357 358 350 349 350 348 347 349 348 348 350 349 349 350 350 349 350 350 350 351 351 350 349 349 347 346 347 348 348 349 350 351 352 353 353 353 354 354 355 355 356 356 357 359 358 355 353 351
330 339 341 327 325 332 329 325 327 326 330 349 356 343 337 331 335 352 345 336 347 352 342 343 350 349 349 350 349 349 352 357 363 362 359 358 354 351 354 353 346 343 346 347 347 347 348 348 349 349 349 349 348 348 348 348 348 347 346 346 345 345 344 345 346 347 348 350 352 352 353 354 353 354 354 354 355 355 356 357 358 359 358 356 355 354
327 334 334 326 324 327 326 325 328 328 335 354 356 341 333 333 339 340 330 333 352 355 345 348 354 353 353 355 355 354 354 362 365 360 357 360 356 351 349 348 345 344 345 346 346 346 347 348 347 347 347 345 345 345 346 347 346 344 343 343 343 343 345 346 348 350 350 351 352 352 353 353 354 354 354 355 355 356 356 357 358 358 358 357 357 355
329 331 329 324 325 329 326 322 324 332 344 352 347 339 335 333 334 331 329 341 355 353 352 356 357 357 358 360 365 365 363 368 368 359 356 357 354 350 346 343 344 346 346 346 346 346 346 346 345 344 343 342 343 344 345 345 344 343 343 343 343 345 347 349 349 349 349 349 349 349 350 351 352 353 354 354 355 356 356 355 356 356 356 356 355 354
330 329 330 326 325 329 330 323 323 333 348 348 338 337 337 332 329 332 344 356 354 350 354 354 353 358 356 356 367 371 364 363 361 355 353 352 352 352 348 344 345 347 347 347 346 346 345 345 344 343 342 342 342 343 344 344 343 343 342 343 345 347 348 348 347 346 346 345 345 345 345 347 349 350 352 353 353 354 353 353 353 354 354 354 354 352
328 326 328 329 328 326 324 322 323 330 342 345 339 340 345 344 342 345 350 353 353 355 355 350 352 358 353 351 361 363 360 359 356 353 352 350 351 352 348 345 345 346 346 347 346 346 345 344 343 342 342 342 342 342 343 343 343 343 342 343 346 347 346 345 345 343 342 341 341 342 342 343 345 347 348 350 351 352 351 351 352 352 352 352 351 349
335 332 332 336 337 329 322 325 332 336 342 344 347 354 356 351 350 351 349 348 350 356 357 354 354 356 356 361 362 357 359 360 355 352 352 351 352 352 348 345 344 344 346 347 346 345 344 343 342 341 341 342 342 341 342 343 344 345 345 345 346 346 345 344 343 342 341 340 341 341 341 341 342 343 345 347 349 351 351 351 351 351 352 351 348 346
336 340 340 341 342 339 336 339 341 341 343 345 350 358 357 349 349 353 354 353 350 349 354 355 354 355 359 364 360 355 357 357 352 351 352 351 351 351 348 345 344 344 346 346 345 345 344 342 342 341 341 341 341 341 341 341 342 344 344 344 344 344 343 342 341 340 340 339 339 339 339 339 340 340 343 345 346 348 350 350 352 351 351 352 349 346
338 343 345 346 345 341 341 347 346 344 347 347 345 346 346 347 353 355 354 354 350 347 349 352 354 356 357 357 355 353 354 354 352 351 351 350 350 348 346 344 343 344 345 345 343 343 343 342 342 340 340 341 340 340 340 340 341 342 341 343 344 343 341 340 340 339 337 336 336 336 336 337 338 339 340 342 344 346 346 348 350 351 351 351 350 347
343 341 342 345 347 341 339 347 349 344 344 346 343 341 342 347 353 353 349 349 348 346 348 352 355 356 357 358 358 355 353 353 353 351 350 349 348 348 346 343 342 343 344 344 344 343 342 342 341 340 339 339 338 339 340 340 341 341 341 343 343 341 340 339 338 337 335 334 335 335 335 336 336 336 337 337 339 342 343 345 347 348 348 348 347 346
342 342 343 343 347 345 339 344 350 345 343 347 346 344 347 349 349 349 346 346 348 347 347 351 353 353 355 357 356 354 353 353 352 351 350 348 348 348 346 341 340 343 344 344 344 343 342 342 342 340 339 338 337 338 339 341 341 341 342 343 342 340 339 338 337 335 334 333 333 334 334 334 332 330 329 330 332 335 338 342 345 347 347 346 345 345
339 340 344 343 348 351 344 345 351 347 344 348 349 349 351 349 347 348 346 346 348 348 347 352 354 352 353 354 353 353 355 353 351 350 348 347 348 347 343 341 341 342 342 343 343 342 342 342 342 340 339 337 337 337 338 340 342 342 343 343 341 340 338 337 336 335 334 332 332 332 332 331 329 326 325 325 326 327 330 335 340 344 346 346 346 346
336 339 348 347 346 349 350 351 352 347 344 349 350 350 351 348 346 348 349 349 349 349 350 354 352 350 350 349 349 353 355 353 349 348 347 347 346 343 340 340 341 341 341 341 341 341 342 342 341 340 339 338 336 336 338 340 341 341 342 342 340 339 338 336 336 336 334 333 332 331 331 330 328 327 326 325 325 324 324 327 332 338 342 344 345 345
336 343 354 355 351 354 358 358 354 349 348 350 349 348 350 349 346 348 351 352 351 348 348 351 351 352 352 347 344 348 354 352 347 346 347 346 342 339 340 340 340 341 341 340 340 341 341 341 340 339 338 336 335 335 337 339 339 340 341 341 340 339 337 336 336 336 335 334 332 331 331 330 328 328 327 326 325 325 324 324 327 332 337 341 343 343
Wind_Speed
3 2 2 5 7 9 10 9 10 11 9 7 6 3 6 6 4 5 4 4 9 7 5 9 7 4 5 6 5 4 4 3 1 1 1 4 4 5 4 4 6 6 6 9 17 21 20 20 23 22 16 21 28 29 30 29 28 29 28 27 25 24 24 24 24 24 23 23 23 22 21 20 18 17 18 20 20 19 19 17 16 17 17 15 14 12
3 3 8 10 12 13 11 8 9 11 10 10 7 4 4 4 6 7 4 5 8 4 3 5 5 5 5 6 5 4 4 3 3 4 4 5 5 4 4 5 5 5 5 10 14 19 23 19 17 18 16 19 26 29 30 30 29 29 29 27 26 25 26 25 25 26 25 25 24 23 22 21 20 19 20 21 22 21 20 18 17 18 17 16 15 14
0 5 13 14 12 11 9 8 10 11 9 7 4 2 2 3 4 4 1 5 6 1 2 4 5 3 2 4 3 4 5 2 4 4 2 5 6 4 4 5 4 5 5 8 12 17 24 23 16 16 18 19 25 30 29 30 30 30 30 28 26 26 26 26 26 26 26 25 24 23 23 22 21 20 20 21 22 22 21 19 17 18 18 16 16 15
2 8 16 14 9 8 10 10 9 5 2 2 2 1 4 3 4 2 1 5 4 1 2 5 5 2 2 2 2 1 3 2 1 3 3 2 4 3 2 2 1 4 5 6 9 14 19 20 18 20 20 18 23 28 28 30 31 30 30 29 27 27 26 26 26 25 24 23 22 20 21 21 21 21 19 19 21 22 22 20 19 20 19 16 16 16
9 13 13 10 10 11 10 7 3 1 3 4 3 3 4 5 4 3 3 6 4 1 3 7 5 3 1 1 1 2 1 3 3 4 4 4 1 1 2 3 3 4 4 4 6 9 11 13 16 20 20 18 22 27 27 30 31 31 31 29 28 27 27 26 25 23 22 22 20 18 18 19 19 19 18 18 19 20 22 22 22 22 19 17 16 16
12 16 9 5 9 11 9 5 3 3 4 4 3 6 7 9 5 6 8 7 5 1 3 5 4 3 4 2 3 2 2 3 2 2 3 5 3 2 1 3 4 5 3 3 5 8 9 10 10 13 17 19 21 24 27 29 30 31 30 29 28 27 27 25 24 23 22 22 21 20 21 21 21 19 18 20 21 21 23 24 24 23 21 19 17 16
7 10 6 5 5 5 4 4 3 4 3 2 4 7 6 4 4 10 11 6 4 5 5 3 5 2 4 3 5 4 2 1 2 2 2 3 4 1 1 3 4 3 1 2 7 10 11 11 9 9 15 20 21 23 25 26 27 29 29 29 29 28 27 25 24 24 23 23 23 22 23 24 24 22 21 21 21 23 24 25 25 24 22 21 18 17
2 2 1 2 1 1 1 2 4 3 4 3 6 5 3 4 8 12 10 5 4 4 1 1 5 3 2 4 5 6 4 3 2 1 2 3 3 2 0 3 5 4 2 3 6 8 11 14 13 11 13 19 23 23 25 26 27 28 28 29 29 28 28 26 25 24 23 24 23 22 22 23 24 24 22 21 20 21 22 24 25 24 22 22 20 18
1 1 1 3 3 2 2 5 6 1 4 4 7 3 4 4 8 10 8 4 3 4 0 3 3 4 3 5 2 4 5 3 3 3 3 4 4 1 2 3 5 6 4 3 4 4 6 10 14 15 15 18 23 23 24 26 27 27 27 27 27 28 28 27 26 25 24 24 24 23 22 22 23 22 21 20 19 19 21 24 24 23 22 21 19 19
4 4 5 6 3 3 5 7 5 4 4 5 6 2 3 4 7 8 6 4 3 4 4 7 3 4 2 5 2 1 3 4 4 3 3 4 4 2 2 3 5 6 3 3 3 2 3 5 9 14 16 18 21 21 22 25 26 26 26 25 25 27 28 26 26 26 25 25 24 23 23 23 22 21 19 19 19 20 22 24 24 24 23 21 19 18
7 5 4 4 4 6 6 5 4 4 5 3 2 3 6 5 5 4 3 4 3 1 5 8 7 5 0 4 3 3 3 4 5 3 3 4 4 2 3 3 4 4 3 5 5 3 6 8 10 11 15 17 17 18 20 22 24 26 26 24 24 26 27 26 26 26 26 25 25 24 24 24 23 21 20 19 19 21 23 23 23 23 22 19 17 17
6 5 4 4 4 5 2 0 2 3 1 4 3 3 4 4 4 4 4 3 2 4 5 5 6 6 2 4 5 3 1 5 7 6 6 6 5 4 4 4 4 4 4 7 7 5 7 9 11 10 13 14 15 17 18 20 21 24 26 24 23 25 26 26 26 27 26 26 26 24 23 24 23 21 21 21 21 22 24 23 20 18 19 17 17 17
5 5 5 2 2 3 4 3 5 6 5 5 3 3 4 2 4 3 3 1 2 4 4 4 6 4 1 4 5 3 2 5 6 7 9 9 7 6 6 5 5 4 5 5 5 5 6 7 9 10 12 13 15 16 18 20 21 24 26 23 23 26 26 26 27 26 26 26 26 25 23 23 23 20 21 23 23 23 24 23 20 18 18 18 18 18
4 5 1 3 1 0 6 3 2 3 4 4 1 2 3 1 1 1 3 2 2 1 3 2 3 2 2 4 4 4 4 5 6 7 8 9 9 8 7 6 5 5 6 5 5 6 6 6 8 10 12 14 16 16 18 20 22 24 25 23 23 25 26 27 27 26 26 26 27 27 24 23 22 19 19 22 23 24 24 24 22 19 18 18 18 17
1 4 2 3 2 1 3 4 5 3 0 1 3 4 3 3 3 3 3 2 2 1 1 4 3 2 2 3 3 3 4 4 5 6 7 7 7 6 5 5 5 5 5 5 5 6 6 8 10 11 12 14 16 17 17 19 22 24 25 24 24 25 26 26 27 26 26 26 27 27 24 23 23 20 18 20 22 23 23 23 23 20 18 18 16 15
2 1 4 3 3 4 3 4 4 5 1 3 1 4 1 2 4 2 2 4 4 2 2 4 2 2 2 3 3 2 3 1 2 5 7 6 6 5 5 5 5 5 5 5 6 6 7 9 11 12 13 14 15 17 17 20 23 24 24 25 24 25 26 26 27 27 27 27 27 27 25 23 23 22 18 18 20 21 21 22 22 20 19 19 16 14
2 1 4 2 1 2 6 4 3 5 2 2 3 1 5 4 6 3 2 1 5 4 1 2 1 3 2 3 4 3 2 2 2 4 6 7 7 6 6 6 5 5 6 6 6 6 7 8 11 13 14 15 16 17 19 22 25 24 23 25 25 24 25 26 27 27 27 27 27 27 25 23 25 25 20 18 19 19 19 20 21 20 19 18 17 16
4 1 5 1 2 5 3 3 2 2 5 3 1 4 4 1 3 3 1 3 4 3 1 1 1 2 0 2 4 2 2 2 1 4 5 5 7 7 6 6 7 7 7 6 6 6 7 8 11 13 15 17 18 19 22 24 26 24 22 25 26 25 26 27 27 27 27 27 28 28 27 25 26 27 23 19 18 18 19 21 21 20 19 17 18 18
5 1 7 1 4 3 3 6 5 5 3 4 3 3 1 2 1 1 2 0 2 2 1 2 3 2 3 3 3 4 4 3 3 3 4 5 6 6 6 6 7 6 6 5 5 5 6 8 11 14 15 18 19 20 22 25 26 24 22 24 26 26 26 26 26 27 27 27 28 28 28 27 27 28 25 20 20 20 20 21 22 21 20 19 19 20
3 4 4 4 2 2 4 5 1 5 5 3 2 3 2 2 2 1 1 2 4 3 2 0 3 3 4 4 5 7 7 5 5 4 4 4 4 5 5 6 6 6 6 5 5 5 6 8 11 15 17 18 20 21 23 24 24 23 23 24 25 25 25 25 25 26 26 27 27 28 29 28 28 28 25 21 22 24 23 22 22 22 21 20 21 22
3 4 1 6 3 4 2 0 4 3 1 3 3 4 2 1 0 1 1 0 4 4 3 2 1 4 5 3 6 8 7 6 6 5 4 4 3 3 4 5 5 6 6 6 5 5 6 7 11 15 18 20 20 20 22 24 23 23 23 24 25 24 24 25 25 26 27 26 26 27 28 29 29 28 25 23 24 25 24 24 23 23 22 21 22 22
2 2 3 2 4 3 2 4 4 6 5 4 2 1 2 1 2 3 3 3 2 4 4 4 2 5 5 2 4 6 6 6 6 6 5 3 3 3 3 4 5 5 5 5 6 5 6 7 10 13 16 17 18 19 21 23 23 23 24 25 25 24 25 26 25 25 26 26 25 26 27 28 28 27 26 25 25 25 24 24 23 23 24 24 23 23
3 4 4 1 1 2 5 3 3 3 2 3 2 2 4 3 3 4 1 3 1 3 1 3 2 4 4 2 4 4 5 5 5 6 5 3 3 3 3 3 3 4 3 4 4 4 6 9 11 14 15 16 18 19 20 22 23 24 25 26 25 25 25 26 26 26 27 27 26 26 26 27 27 27 26 25 25 26 26 25 25 25 26 27 25 25
2 4 4 1 3 3 4 5 7 6 5 4 2 1 2 1 2 5 4 2 2 2 1 3 1 4 5 3 4 4 4 5 5 5 6 4 3 2 3 3 3 3 3 3 3 2 5 8 10 12 14 15 16 17 19 21 22 23 24 26 26 26 26 26 25 26 27 27 27 26 26 27 27 27 26 27 26 26 27 28 27 27 28 27 26 26
1 2 4 3 4 5 6 6 7 6 3 2 2 4 1 2 5 5 2 3 3 1 1 4 2 5 5 1 4 4 5 6 4 4 5 5 4 4 4 4 3 4 3 2 2 2 4 7 7 9 12 14 15 17 18 19 21 22 24 25 26 27 27 26 25 25 28 29 28 27 27 28 29 28 27 28 29 28 28 29 29 29 29 29 28 27
3 3 4 5 3 0 1 1 2 2 2 1 2 4 3 3 6 4 2 5 2 2 2 5 4 4 3 2 5 4 5 6 4 4 4 4 5 5 4 4 4 4 4 3 2 2 4 5 5 8 11 13 15 17 19 20 21 23 24 26 27 27 27 27 25 23 26 30 30 29 29 29 30 31 30 30 31 30 29 28 29 30 30 31 30 29
4 3 3 7 7 6 6 6 5 4 1 2 3 2 1 2 4 6 5 3 3 2 2 3 6 4 2 5 5 4 5 6 5 5 5 4 5 5 5 5 4 4 4 4 3 3 3 4 4 7 10 12 15 17 19 20 22 22 23 25 27 27 26 28 27 22 22 28 32 31 31 31 31 32 33 33 33 32 30 28 29 30 30 31 31 31
5 1 2 8 8 7 8 6 5 2 2 3 4 3 0 2 3 6 5 4 5 5 1 5 5 7 7 7 7 6 6 6 6 6 6 6 6 5 4 4 4 4 4 4 3 3 3 3 3 5 9 12 14 15 18 20 22 22 22 23 24 26 25 26 27 24 21 25 31 32 32 32 33 33 33 34 34 33 32 29 28 29 31 31 31 31
6 2 4 6 5 5 7 5 3 1 2 3 3 3 2 2 4 5 4 6 7 6 4 4 6 7 7 6 8 9 8 8 8 7 6 5 5 4 4 5 5 5 5 5 4 4 4 4 3 4 8 10 12 15 16 14 13 15 18 21 22 24 25 24 25 25 23 24 28 32 33 32 33 33 33 34 35 34 34 32 29 29 30 31 31 32
5 1 3 5 3 1 4 4 4 2 1 1 1 4 3 2 5 6 5 6 6 5 7 8 9 7 6 8 10 10 8 7 6 5 5 5 6 6 5 6 6 6 6 5 6 6 5 5 5 5 7 8 10 12 9 5 6 12 17 20 21 22 24 25 25 25 24 24 25 28 30 30 30 31 31 32 34 35 35 34 32 31 30 30 31 32
4 1 2 4 4 3 2 4 6 4 2 2 4 6 4 1 4 4 4 5 5 4 5 8 9 4 4 8 9 6 5 5 4 5 6 6 7 7 6 6 6 6 6 6 6 6 6 6 5 5 6 8 8 9 11 11 16 18 16 16 19 22 24 26 27 26 25 25 24 24 27 28 29 29 29 28 30 33 35 35 34 33 33 33 31 32
3 2 1 5 5 3 3 4 5 5 7 6 5 6 5 1 4 2 3 3 5 7 6 7 6 3 3 5 6 4 6 6 5 7 6 6 6 7 7 6 6 7 6 6 6 5 5 6 5 5 7 9 8 7 12 16 18 16 14 13 16 20 22 24 26 26 26 26 24 24 26 28 30 29 29 28 26 28 32 35 36 34 34 35 34 33
3 4 2 4 4 3 4 3 5 6 7 5 4 2 1 0 1 2 2 0 3 7 6 5 5 6 4 7 6 5 7 6 7 7 5 6 6 5 5 6 6 6 6 6 5 5 5 5 5 7 8 10 9 7 9 12 13 13 14 14 14 15 17 19 22 24 25 25 25 26 27 28 30 30 31 31 28 26 26 30 34 35 34 35 36 36
2 4 4 3 4 3 5 2 6 5 2 4 6 6 5 3 4 5 5 3 3 5 5 5 6 6 6 9 9 9 8 7 7 6 5 6 5 4 4 5 5 5 4 5 5 4 4 4 4 4 5 6 6 5 6 9 9 10 10 11 13 14 15 17 19 21 22 23 24 26 27 27 28 28 29 30 30 28 26 26 29 33 36 35 34 36
0 3 3 2 4 4 1 5 5 1 5 6 6 5 4 6 9 8 5 3 2 4 8 7 7 7 8 9 10 10 9 7 6 6 5 6 6 6 6 5 5 6 5 5 5 4 4 5 7 6 5 6 6 5 5 6 7 7 8 9 11 13 14 16 16 17 18 19 20 22 23 24 24 25 26 26 27 28 28 27 27 29 33 35 35 35
4 3 2 1 2 3 2 3 3 5 6 4 5 5 1 4 5 5 4 6 6 2 9 9 6 7 8 8 8 8 8 6 5 2 3 5 6 6 7 6 6 6 5 5 5 5 6 7 7 6 7 7 6 5 6 6 5 6 7 8 10 11 11 13 14 16 16 17 18 18 19 21 21 22 24 24 24 25 27 28 29 29 30 31 32 33
6 3 2 2 2 3 4 3 2 3 5 5 3 3 2 3 4 4 2 4 6 2 6 10 8 7 8 8 6 6 7 6 5 1 2 3 5 6 6 6 6 6 6 6 7 9 9 9 7 6 6 5 5 5 5 5 6 6 5 5 7 8 7 8 11 14 15 16 17 18 19 19 21 22 23 24 24 25 26 27 28 29 29 29 29 30
7 5 4 4 2 2 5 2 0 2 4 5 6 6 4 4 7 7 5 2 6 5 1 8 10 8 7 8 7 7 7 6 4 3 4 2 4 5 4 4 4 6 7 9 10 11 10 8 7 5 4 4 4 3 3 4 5 6 6 6 7 8 7 7 8 10 12 13 16 18 19 19 20 23 24 25 25 26 26 26 26 27 27 25 25 26
6 4 5 5 2 2 5 3 3 4 5 7 8 6 3 7 8 8 6 3 6 5 1 6 9 8 8 8 7 7 7 4 4 5 5 4 4 5 5 5 6 8 10 12 11 10 8 7 6 5 4 3 2 2 4 5 5 6 7 7 6 7 8 8 8 9 10 10 10 13 16 18 20 22 24 26 27 27 27 26 25 23 22 23 26 27
4 3 5 5 4 4 5 4 3 3 4 7 7 5 4 7 9 9 3 4 6 4 2 7 8 7 7 7 5 5 5 5 5 5 5 5 3 5 7 8 8 10 11 11 10 8 7 6 6 5 4 3 1 2 4 5 5 4 4 4 4 4 5 5 5 5 6 7 7 9 12 15 19 22 24 26 27 27 28 29 28 26 26 28 31 33
1 2 3 4 5 6 6 4 3 3 4 5 5 6 6 6 7 5 5 6 5 6 5 7 8 7 6 6 4 3 4 5 4 5 6 5 5 5 7 10 12 12 12 11 9 8 7 6 6 7 6 3 1 1 2 3 4 4 3 2 2 2 1 1 3 4 5 7 8 9 11 12 15 19 22 25 26 26 28 29 30 31 31 30 30 32
1 1 1 3 4 4 4 4 2 3 4 5 4 3 4 5 2 4 6 5 6 7 6 6 8 7 6 6 5 4 4 4 5 6 6 6 7 6 7 10 12 12 11 11 9 7 7 7 8 7 6 4 3 3 3 4 4 4 3 2 2 2 2 3 5 6 6 7 8 9 11 13 15 16 18 21 24 25 27 27 28 30 32 31 30 27
1 1 1 2 3 3 2 3 3 2 5 6 4 2 3 3 6 6 4 4 6 7 6 5 6 6 6 5 5 6 6 5 5 7 7 7 8 7 7 9 10 10 11 12 10 7 7 8 7 6 5 5 5 5 5 6 6 5 5 4 3 3 3 4 5 6 7 8 8 9 10 13 15 15 15 18 21 24 26 27 27 29 29 29 28 21
1 0 1 2 1 3 2 3 4 5 6 5 6 3 2 4 6 7 7 5 4 5 5 5 4 5 7 7 6 7 7 5 6 7 8 8 7 7 7 9 10 11 11 11 10 8 9 10 9 6 6 6 5 5 5 6 6 6 6 5 3 3 4 5 5 6 8 8 8 8 8 11 13 14 15 15 17 21 25 26 26 28 28 27 23 18
2 3 4 2 2 2 4 4 5 3 2 1 4 5 5 5 6 8 8 5 3 4 4 5 5 5 6 8 9 7 6 5 6 7 8 8 7 7 8 9 10 12 12 12 11 9 10 11 10 8 7 6 5 4 3 3 3 4 4 4 4 5 6 5 4 5 7 7 7 8 9 11 12 14 16 16 16 18 21 24 25 25 25 24 22 22
4 4 2 2 2 1 2 1 2 2 3 3 4 4 6 6 5 5 7 6 5 5 5 6 6 6 6 8 7 6 6 6 7 7 7 7 7 7 8 9 10 12 12 12 11 10 10 10 9 8 7 5 3 2 2 2 2 3 4 5 6 6 6 4 3 4 4 5 6 7 9 12 13 15 16 18 19 20 19 19 21 22 22 23 23 27
5 4 2 3 2 2 1 3 3 3 4 5 5 5 4 4 4 5 7 7 6 6 7 7 7 6 6 7 8 7 7 8 8 7 7 7 7 7 7 8 9 11 12 12 11 10 11 10 10 9 7 4 2 1 1 2 1 1 3 5 6 5 5 4 3 3 1 2 5 7 9 12 14 15 16 16 19 22 21 19 18 18 20 21 23 29
4 4 3 3 3 3 1 3 4 3 2 3 4 3 3 5 6 6 7 7 7 7 7 6 7 6 6 6 8 9 8 8 9 9 7 6 7 6 6 8 10 11 11 11 11 11 11 11 11 9 7 5 2 1 2 1 1 1 2 5 6 6 5 3 2 1 1 3 5 6 9 10 10 12 13 13 13 15 17 18 19 19 20 21 25 30
3 3 1 1 2 3 2 2 5 5 5 5 3 2 4 6 8 8 8 8 8 8 7 6 6 7 7 7 8 9 8 7 8 9 8 7 6 6 7 9 12 12 12 11 10 10 10 10 10 8 6 5 3 3 3 2 2 3 3 5 6 6 4 3 1 0 2 4 6 6 7 8 9 11 12 11 9 8 8 11 15 19 20 21 24 28
3 3 1 2 3 1 2 2 1 2 1 4 4 4 5 6 8 9 8 8 8 8 9 8 6 6 7 8 8 9 8 7 7 9 8 7 6 8 10 12 12 12 12 11 9 9 9 9 8 6 4 4 4 4 3 2 2 3 4 7 7 6 4 3 2 1 0 3 5 7 8 9 9 10 11 10 8 6 4 4 9 16 19 20 23 26
3 3 2 3 2 3 5 5 5 4 3 5 5 4 5 5 8 8 7 8 8 7 9 10 7 6 6 7 9 10 9 7 8 9 8 6 8 12 13 14 13 13 12 11 10 9 8 7 6 5 4 4 4 5 2 0 0 2 4 7 9 7 5 5 5 4 3 3 5 7 8 8 8 8 9 9 10 8 5 5 4 4 11 16 21 24
Wind_Direction
147 180 262 225 230 232 229 210 210 235 239 254 260 202 196 194 221 238 242 226 164 153 213 197 205 228 205 202 182 180 173 156 185 106 186 236 230 216 207 219 216 199 183 151 142 140 127 126 145 152 155 163 162 163 164 162 163 166 169 173 174 178 179 178 177 174 173 172 172 172 174 177 179 183 187 188 190 194 197 195 189 189 189 189 190 189
119 193 238 228 226 231 231 213 215 236 237 244 244 203 203 196 221 239 218 189 162 147 236 192 194 233 196 179 185 173 157 173 185 174 219 241 248 243 231 243 227 198 165 140 134 128 128 138 152 152 159 166 159 159 163 162 163 166 169 174 175 176 179 179 178 176 177 178 176 174 174 176 175 177 181 184 189 191 194 196 192 189 189 187 190 194
87 239 244 234 230 238 247 233 228 233 219 222 227 180 257 230 215 265 54 143 155 145 264 170 159 219 193 155 173 155 144 192 205 165 182 235 255 266 243 249 227 170 144 131 133 131 136 149 157 149 162 176 161 155 159 160 162 165 168 174 177 178 180 179 179 180 181 183 182 178 177 178 176 177 182 184 187 189 192 195 193 192 191 187 191 194
213 246 246 238 229 242 257 246 231 235 226 235 233 208 268 230 178 269 348 135 141 99 158 136 113 43 16 66 64 101 147 135 82 66 51 260 252 254 224 221 175 135 122 115 134 139 138 143 149 148 162 178 159 151 155 156 159 164 168 175 178 180 182 181 182 184 185 185 181 178 179 181 180 178 180 183 185 188 192 194 195 195 192 188 193 194
229 243 246 235 217 226 246 257 248 283 309 289 230 201 252 241 199 195 154 131 112 27 125 108 71 357 320 127 79 331 34 78 40 34 24 333 316 111 74 83 70 69 97 105 123 130 122 130 148 154 164 174 158 152 156 158 162 166 170 176 180 182 184 184 183 184 185 182 176 170 168 172 177 176 176 181 186 191 194 196 196 196 192 189 192 195
240 245 241 204 202 214 234 264 266 229 259 308 263 224 240 247 222 142 130 120 111 200 209 119 80 301 280 220 207 259 42 63 348 15 28 337 349 68 87 88 59 34 38 55 101 117 109 121 146 151 162 166 154 154 160 162 166 169 172 177 180 181 183 184 183 183 183 181 177 169 163 164 171 174 180 188 191 193 196 196 196 195 192 190 192 193
247 247 221 176 189 204 232 263 246 206 200 317 255 221 225 232 164 142 138 123 134 198 225 143 113 235 287 273 214 179 132 205 286 3 22 326 324 346 162 114 83 67 356 76 123 134 131 138 146 146 159 157 146 151 160 163 166 170 173 177 179 179 180 182 182 182 183 182 182 178 173 171 172 177 188 196 196 193 194 194 195 196 195 193 195 195
245 295 293 150 97 67 33 291 259 218 151 222 247 207 143 106 131 144 138 126 172 187 248 83 108 130 254 257 213 155 152 223 263 304 315 304 303 323 183 130 114 134 179 150 146 145 142 151 155 160 168 156 146 150 157 162 167 171 174 176 178 178 178 182 183 184 185 184 184 184 181 177 177 181 189 196 196 193 192 194 196 197 197 198 200 200
250 2 236 149 97 99 172 219 232 143 117 230 250 191 111 99 129 139 139 147 159 127 236 289 86 103 245 269 261 143 165 223 237 228 261 277 273 279 152 149 134 141 167 182 173 157 149 154 159 167 168 156 154 156 158 162 166 170 173 174 176 177 178 183 186 187 188 187 187 187 184 181 182 186 190 194 197 195 192 194 197 197 199 202 204 204
261 245 210 173 152 195 216 223 201 115 135 242 267 260 39 58 109 123 139 149 114 112 202 233 158 119 249 280 290 214 210 218 217 217 232 256 269 248 166 154 135 141 174 183 158 153 150 161 177 173 161 158 161 162 160 162 164 168 171 173 177 179 178 182 187 189 190 189 189 189 187 187 186 189 191 191 195 195 190 193 198 199 201 205 206 205
257 268 248 213 203 192 202 222 199 166 175 188 326 347 7 25 76 95 113 115 108 230 237 213 175 133 190 276 243 226 229 183 169 178 205 239 267 232 185 162 147 165 186 160 155 170 150 166 196 178 157 159 160 159 161 162 165 171 172 174 180 180 179 183 187 190 191 191 192 191 190 190 188 190 191 188 192 194 191 195 200 200 202 205 209 210
286 296 266 227 196 182 164 334 301 302 92 95 67 48 37 357 19 34 1 44 123 258 264 189 141 104 100 255 247 246 210 160 157 167 183 204 230 213 194 187 183 194 178 152 157 163 147 167 193 176 158 162 160 159 164 167 172 177 175 176 181 179 179 184 186 189 190 190 192 193 193 192 189 191 193 190 193 195 193 196 199 200 205 207 209 213
302 267 240 212 206 167 99 33 331 343 32 67 58 51 66 3 358 10 316 306 191 256 270 167 119 86 227 243 248 240 177 172 178 178 175 185 199 199 198 197 190 183 169 157 156 160 164 181 188 173 163 166 168 168 169 170 176 179 177 178 181 179 179 184 186 188 189 189 191 191 195 196 191 194 200 198 198 197 195 197 197 202 210 211 210 212
311 303 338 84 308 47 100 97 327 334 15 57 132 144 114 117 53 281 277 278 239 276 278 230 100 76 284 275 251 224 198 190 187 182 177 181 190 194 195 193 184 175 168 166 169 174 184 190 189 183 172 171 176 177 174 173 176 179 180 181 181 179 181 185 186 188 189 188 190 190 195 199 195 199 208 207 204 201 200 200 201 206 213 215 216 215
286 322 334 145 215 9 96 159 163 156 341 253 180 142 132 152 148 191 219 202 223 211 292 328 37 119 223 267 242 201 193 183 174 185 184 182 188 186 185 183 178 179 175 170 179 188 195 192 192 190 181 178 180 180 180 178 177 179 181 182 182 180 181 185 186 188 190 189 190 192 195 198 198 202 209 211 211 209 206 205 205 211 217 220 221 219
122 258 262 233 189 144 156 208 154 105 40 271 122 76 31 201 148 170 210 164 149 109 8 349 360 186 210 269 290 113 133 147 147 170 175 183 185 168 173 187 182 186 188 180 179 190 201 195 192 189 185 185 182 179 182 180 177 178 179 182 183 181 183 187 188 190 192 191 191 193 196 199 199 201 204 209 212 212 209 207 209 217 223 224 226 225
87 265 262 282 340 189 179 186 146 119 143 286 43 35 256 198 137 136 300 32 91 90 359 355 336 317 350 319 322 34 67 358 61 139 163 184 183 172 184 190 186 193 194 191 185 189 198 194 190 189 185 185 183 180 182 182 180 178 178 182 183 181 184 187 189 191 192 193 193 194 197 202 201 200 200 204 209 210 210 210 213 218 221 223 227 228
132 289 274 152 25 288 195 103 35 122 133 110 92 242 254 74 100 109 72 357 53 84 292 350 313 274 18 302 304 334 306 296 213 151 154 173 177 183 198 191 189 195 190 190 186 184 195 195 190 188 185 187 188 187 185 184 183 180 180 185 185 182 183 186 189 191 192 195 196 196 198 201 202 201 200 202 208 210 210 211 212 214 215 217 221 223
121 65 296 238 106 309 6 56 3 332 56 119 181 231 63 58 324 16 79 48 67 97 244 330 318 245 187 223 242 228 239 227 204 180 152 170 182 185 196 194 191 189 179 186 182 175 187 190 184 182 183 186 188 190 188 185 184 183 183 187 187 187 188 189 190 191 193 197 198 200 201 202 202 202 201 202 205 206 205 207 210 213 216 217 219 220
110 105 294 290 124 84 17 49 46 321 354 39 16 1 46 140 191 167 121 157 128 134 183 300 332 273 220 213 193 209 223 192 179 188 178 193 199 186 187 187 187 182 178 188 185 175 181 181 176 175 178 183 185 189 188 184 184 184 184 186 188 190 190 190 192 192 194 197 198 201 203 204 204 203 203 203 203 204 204 207 212 215 216 218 221 222
50 90 188 294 340 66 28 276 166 182 55 47 16 358 3 354 41 92 352 153 129 129 158 144 316 268 254 217 181 199 211 183 167 171 185 200 194 182 176 171 181 186 185 189 190 185 186 185 175 172 177 182 183 186 185 183 183 182 183 186 187 189 189 190 193 194 195 196 198 199 202 205 205 205 206 205 203 204 206 209 212 214 216 219 222 221
82 97 130 331 359 53 250 249 170 163 157 136 151 178 143 101 72 72 351 315 89 111 149 152 182 261 264 219 183 186 183 173 158 155 170 189 178 167 158 157 173 181 181 187 193 190 186 187 178 169 172 177 178 181 183 182 182 181 182 184 186 189 190 191 194 195 197 198 199 199 201 203 204 205 207 205 203 206 209 210 210 211 216 222 223 221
118 103 100 89 252 203 241 285 57 93 101 108 149 160 133 121 94 110 183 269 25 50 97 122 124 268 261 199 167 167 169 166 155 153 158 180 189 170 153 151 152 159 161 164 179 196 195 190 183 171 169 172 176 179 181 183 185 185 184 184 185 189 191 193 196 197 198 200 201 202 201 202 203 204 207 206 205 208 209 211 212 212 216 221 224 223
63 88 87 343 304 302 304 346 21 28 44 57 323 324 107 128 119 134 168 186 72 23 50 84 60 274 267 215 156 151 148 138 145 156 154 170 194 177 167 170 162 169 169 138 137 185 193 186 179 168 167 171 175 179 182 187 190 191 188 186 186 190 192 194 198 199 199 200 203 203 203 203 204 205 207 208 209 210 210 210 213 214 215 219 222 222
59 110 95 61 5 345 345 358 0 351 17 85 291 321 359 132 109 104 85 64 57 306 120 109 176 255 270 226 135 125 112 113 135 163 161 174 185 182 190 197 196 187 174 149 103 91 159 175 170 164 168 173 176 179 184 190 194 196 195 193 192 193 194 194 197 201 202 202 203 204 204 204 205 206 208 209 212 215 215 213 214 215 217 218 220 221
130 150 115 105 115 132 291 280 279 294 322 320 314 342 3 88 103 106 76 72 74 291 91 121 184 254 286 194 149 140 128 130 150 163 168 183 182 185 193 196 200 187 172 184 172 122 135 151 162 171 174 176 178 181 186 191 197 200 201 200 198 197 198 198 198 202 204 204 204 205 205 205 205 207 209 210 213 217 220 220 218 219 220 220 220 221
104 139 131 133 156 180 191 213 211 167 160 278 278 319 31 95 103 104 96 110 167 138 79 184 178 157 199 197 178 177 168 167 176 166 168 186 187 187 187 186 191 184 183 191 175 149 132 128 151 171 177 183 186 187 190 194 198 201 203 205 204 203 204 203 203 206 208 206 205 205 206 206 205 207 209 211 213 217 221 224 224 222 221 221 221 223
97 137 170 151 170 185 181 211 238 171 154 219 252 281 221 132 101 94 110 175 157 105 327 250 174 157 198 200 184 191 190 184 192 185 184 193 191 184 179 183 180 174 181 183 168 168 168 167 172 168 176 187 191 194 196 198 201 203 205 207 208 208 208 206 205 209 212 209 207 207 207 207 208 208 209 211 213 216 220 223 225 223 221 221 223 226
108 167 194 162 175 184 172 201 244 209 182 192 217 263 267 131 117 116 154 180 144 129 214 213 157 180 209 194 189 198 190 188 197 193 184 181 181 178 177 182 183 183 184 183 187 190 186 196 201 182 181 186 193 200 198 192 195 203 208 208 208 207 207 208 209 211 213 212 209 209 208 208 209 209 210 212 213 216 218 221 224 223 222 222 224 225
96 163 200 150 125 172 166 151 121 118 206 249 257 262 258 180 144 139 167 172 136 149 183 154 144 181 198 183 195 202 190 187 187 168 155 162 178 189 192 190 193 201 199 192 197 196 192 198 199 197 193 187 192 194 180 164 195 206 210 209 206 206 206 207 209 211 213 215 214 213 211 208 207 206 207 211 213 215 217 219 221 223 224 225 226 224
75 165 216 113 85 326 331 79 74 68 73 13 326 320 328 145 143 136 163 154 117 140 168 130 126 166 201 181 187 188 164 151 141 155 172 182 186 189 197 204 204 207 207 202 202 196 193 197 195 200 204 207 206 174 159 194 216 213 213 212 208 211 210 208 209 212 216 220 220 219 217 213 209 206 205 208 212 215 217 217 219 221 223 224 225 223
90 128 39 70 80 292 314 57 51 37 49 27 338 339 357 128 170 188 212 187 151 152 140 104 117 185 201 158 155 148 139 143 164 179 184 192 192 184 190 202 206 205 201 201 206 192 182 190 194 196 200 213 222 180 168 199 214 213 220 222 214 217 216 213 214 216 219 223 223 223 222 220 218 216 214 215 216 218 219 218 219 221 221 221 222 221
105 112 125 93 92 268 281 70 72 51 40 352 287 214 155 162 124 58 36 76 160 147 133 136 175 199 171 139 142 153 153 163 186 186 181 195 199 189 187 188 187 192 188 188 196 184 174 185 192 197 204 210 217 207 194 206 210 212 224 228 221 218 216 216 220 222 225 226 225 223 222 221 221 222 222 223 225 228 227 224 223 223 223 222 221 220
75 113 162 144 118 240 267 63 67 52 44 260 241 195 174 150 121 110 100 118 164 141 136 163 171 158 144 147 157 168 172 180 187 186 185 184 174 159 165 168 161 159 155 159 170 167 160 149 134 151 187 194 191 192 202 214 218 219 227 230 225 222 222 222 223 224 226 228 228 228 227 225 224 225 225 226 227 231 233 233 231 228 226 225 222 219
248 146 169 127 125 188 259 65 72 246 229 240 261 246 195 146 141 138 103 25 314 140 132 137 148 151 154 159 163 164 171 174 166 172 186 174 155 143 146 160 161 148 138 138 143 145 139 117 102 106 127 146 151 156 180 208 224 223 223 226 227 228 231 233 233 232 232 232 232 232 231 231 231 230 231 231 230 232 235 236 236 233 229 227 225 223
187 180 164 141 135 153 110 101 164 231 249 275 296 285 284 96 119 119 55 352 317 180 145 142 156 168 161 162 165 157 155 148 119 127 197 174 150 142 148 166 174 163 162 166 159 150 134 115 107 114 129 148 162 167 179 201 218 222 222 224 223 221 222 226 232 239 245 249 249 246 242 240 239 237 237 238 238 239 240 239 238 237 233 231 229 226
164 168 153 182 192 148 147 170 213 261 286 308 309 258 191 140 165 156 109 330 314 286 158 150 154 166 158 151 154 139 124 108 89 66 249 169 138 146 160 175 178 168 171 169 151 140 133 123 119 124 134 153 168 174 186 201 209 214 215 218 225 228 226 224 227 229 234 244 253 257 256 252 251 249 246 245 245 245 246 244 242 241 239 237 235 230
159 175 179 188 215 119 122 123 153 198 245 256 246 241 221 166 159 134 102 342 317 326 184 149 145 153 147 136 143 136 110 101 129 209 250 212 135 127 131 149 151 141 143 142 132 125 124 125 123 129 149 165 173 194 217 222 226 232 237 241 245 246 248 254 256 248 244 245 250 255 258 258 258 257 254 251 249 248 249 250 249 247 241 239 240 238
164 149 150 159 175 122 125 153 185 189 230 235 228 235 193 142 131 96 67 333 296 315 341 134 137 145 146 144 151 139 116 128 197 228 241 215 158 115 103 100 96 102 116 126 126 122 125 134 141 147 148 145 163 234 256 264 267 258 256 262 263 256 259 272 282 280 278 272 262 257 257 256 256 255 254 252 249 247 247 247 247 247 241 236 236 237
180 115 129 155 179 173 162 182 202 204 233 229 222 223 175 131 101 81 76 258 258 258 170 134 140 156 152 143 135 122 133 176 211 219 210 189 146 118 119 116 109 111 115 117 118 123 135 148 152 139 111 91 63 291 279 275 272 265 269 286 288 275 281 296 299 291 283 275 267 260 257 255 252 250 249 249 247 245 244 242 240 241 242 241 237 234
198 124 148 166 178 177 172 184 222 237 232 219 212 205 177 119 81 99 197 221 212 203 182 142 148 168 158 142 133 142 190 204 187 176 175 144 114 117 119 115 116 120 120 120 121 124 126 121 113 108 101 97 107 271 257 244 245 246 255 282 279 247 244 269 269 269 268 268 270 269 266 263 259 255 252 250 248 246 245 244 242 240 241 242 240 236
336 15 115 152 164 172 171 170 197 264 239 202 193 190 130 115 149 206 207 187 167 182 185 156 159 172 159 150 153 161 190 193 149 143 147 127 121 127 112 105 107 107 107 111 114 116 115 106 102 107 115 130 158 183 191 193 204 215 216 223 226 204 210 251 262 266 274 281 284 283 281 277 273 270 266 260 254 250 247 247 244 242 240 239 236 233
260 311 272 205 171 144 145 155 144 234 232 186 151 42 49 139 189 192 167 163 171 175 173 162 173 178 155 147 154 150 153 155 132 129 132 127 125 124 114 111 111 108 108 110 111 119 126 121 120 128 139 155 170 177 180 179 178 186 200 210 206 200 231 266 278 284 291 294 295 297 296 288 281 280 277 270 262 255 250 247 243 241 238 236 231 220
343 98 200 260 205 126 144 198 194 214 226 171 134 155 202 175 168 153 144 158 171 165 159 153 171 181 157 142 147 151 151 148 133 129 132 131 128 122 115 116 118 118 119 120 123 135 141 139 144 157 172 186 190 187 191 195 190 189 199 206 199 214 252 267 276 288 296 302 305 307 308 301 294 288 281 274 266 257 250 244 240 237 235 233 227 205
289 232 175 191 269 176 164 212 236 235 234 144 124 154 162 147 142 140 136 136 143 154 153 143 153 168 152 141 148 157 159 154 146 141 138 135 132 127 121 125 129 128 129 132 138 150 158 157 164 180 195 200 198 195 201 205 201 201 205 204 210 233 250 253 261 284 295 303 313 318 318 314 309 298 286 276 266 259 253 245 240 234 230 230 222 201
270 264 179 141 306 343 97 273 306 40 77 79 81 109 130 137 143 133 120 122 140 145 138 138 148 154 143 137 142 152 157 150 142 140 138 132 129 125 122 124 127 129 133 140 149 160 166 169 180 196 204 204 202 202 199 193 200 211 205 203 215 233 241 244 265 287 295 310 327 333 330 327 322 312 297 281 269 263 259 253 246 235 230 230 217 197
301 311 24 63 42 60 42 328 348 70 109 113 98 84 94 116 137 132 123 130 142 138 131 136 137 134 133 133 134 140 148 143 133 133 134 130 130 130 125 123 127 131 138 149 161 167 170 177 191 204 212 220 229 215 201 191 180 198 208 207 211 221 232 253 281 287 301 358 360 354 348 341 332 322 310 293 277 268 263 260 256 244 235 230 211 195
318 344 10 18 45 105 167 304 339 18 44 71 96 115 123 121 124 124 125 132 134 128 126 131 128 122 124 131 133 137 141 137 135 136 135 132 136 135 130 130 132 131 135 150 167 177 182 189 200 210 220 228 236 252 252 229 141 198 217 205 203 214 234 256 279 307 60 52 36 17 4 356 347 337 327 312 293 279 267 257 252 245 238 228 210 201
314 345 343 340 31 63 82 9 10 22 12 355 360 153 158 145 132 126 124 126 125 119 111 114 122 125 129 135 135 132 134 139 140 137 136 139 141 138 139 141 140 139 142 153 171 184 191 199 207 210 214 221 225 235 240 215 200 219 201 184 194 212 225 222 208 9 46 63 65 56 41 27 15 2 351 339 323 305 281 256 243 237 235 230 218 211
311 318 329 76 63 66 183 195 114 100 231 272 257 191 172 154 132 125 127 128 130 130 123 119 115 113 123 136 136 130 134 144 142 135 137 142 142 140 145 148 147 149 154 160 173 186 195 207 213 210 219 237 227 217 221 217 214 214 188 178 190 203 202 185 180 211 112 84 79 79 73 57 36 18 9 5 360 349 326 267 240 231 227 224 219 215
236 224 194 136 151 214 218 204 181 155 197 244 232 202 201 165 125 124 138 144 146 145 134 127 123 110 114 133 137 132 135 143 141 135 134 141 146 147 150 152 153 156 162 167 173 182 192 204 212 213 229 234 209 200 214 348 150 199 198 193 194 197 197 190 184 182 172 132 103 92 83 73 59 44 28 23 26 27 37 66 92 191 210 209 207 205